Погода в Березниках

Россия / Пермский край     56°58′58″N   55°33′11″E
темп.,
°C
ветер,
м/с
пор.,
м/с
влажн.,
%
обл.,
%
осадки,
мм/ч
давл.,
гПа
погр.,
м
5 марта, пт
пт523:00−3ююз71595100 2.1 987865
02:00−5зюз7168875 1.6 987708
05:00−4з8149087 2.1 990862
08:00−9з61290100 0.1 995612
11:00−9з5992100 0.1 998461
14:00−7з4790100 0.1 999536
17:00−7зсз4784100 0.1 1001675
20:00−12з349032 0.0 100458
6 марта, сб
сб623:00−14зюз349216 0.0 100666
02:00−14зюз369733 0.0 1006111
05:00−14юз389757 0.0 1008161
08:00−13зюз499599 0.1 1008296
11:00−13зсз478997 0.1 1010499
14:00−11з468241 0.0 1011701
17:00−11з468568 0.0 1011764
20:00−15зюз2395100 0.0 101221
7 марта, вс
вс723:00−16зюз229898 0.1 101320
02:00−18юз129878 0.1 101220
05:00−19ююз119988 0.1 101220
08:00−20ююз1210095 0.1 101020
11:00−15зюз129095 0.1 1010267
14:00−11зсз2282100 0.0 1008618
17:00−11з2382100 0.1 1008653
20:00−14ю2297100 0.1 100822
8 марта, пн
пн823:00−18ююз239996 0.2 100832
02:00−20ююв2310084 0.0 100739
05:00−17ююв4109792 0.1 1005263
08:00−15ююв61294100 0.3 1002438
11:00−12ююв61191100 0.8 999591
14:00−8ююв6991100 0.4 998729
17:00−5ююз3694100 1.1 998489
20:00−9юз4128661 0.2 1001281
9 марта, вт
вт923:00−10ю4109481 0.3 1002385
02:00−11ююв3894100 0.2 1000213
05:00−13в3694100 0.2 996140
08:00−11с4895100 0.9 994241
11:00−9ссз5893100 2.1 997419
14:00−6зсз5788100 0.1 1002760
17:00−6зсз4687100 0.3 1006809
20:00−10зсз2295100 0.1 100822